Meteo Giornale » Osservazioni meteo Germania » Geilenkirchen

ore: 03:50 - Osservazioni Meteo Geilenkirchen
Lat. 50° 58' N Lon. 6° 3' E Alt. 90 metri s.l.m.

nuvoloso Europe/Berlin

14 °C

Nuvoloso

Temp. 24 Ore

14 °C

18 °C

Sud-Ovest

35.2 Km/h

Dew point 9 °C

Umidità 71 %

Visibilità  10 Km

Il sole sorge alle ore 08:07

Il sole tramonta alle ore 18:32

Data e Ora Cielo e Fenomeni T °C DP °C Um. % Pres. hPa Vis. km Vento km/h
Oggi h: 03:50 nuvoloso Nuvoloso 14 9 71 990 10 SO 35.2
Oggi h: 02:50 nuvoloso Nuvoloso 16 10 67 990 10 O/SO 33.3
Oggi h: 02:30 molto_nuvoloso Molto Nuvoloso 15 13 87 991 9 SO 20.3
Oggi h: 02:12 nuvoloso_piovaschi Rovescio di Pioggia 15 13 87 991 5 SO 16.7
Oggi h: 01:50 nuvoloso_piovaschi Debole Rovescio di Pioggia 16 13 82 991 8 S/SO 16.7
Oggi h: 00:50 sereno Sereno 17 13 77 994 10 S/SO 14.8
Ieri h: 23:50 sereno Sereno 17 13 77 996 10 SO 14.8
Ieri h: 22:50 molto_nuvoloso Molto Nuvoloso 17 13 77 998 10 SO 14.8
Ieri h: 21:50 molto_nuvoloso Molto Nuvoloso 17 13 77 999 10 SO 18.5
Ieri h: 20:50 molto_nuvoloso Molto Nuvoloso 17 13 77 1000 10 SO 16.7
Ieri h: 19:50 molto_nuvoloso Molto Nuvoloso 17 13 77 1001 10 SO 20.3
Ieri h: 18:50 molto_nuvoloso Molto Nuvoloso 17 13 77 1002 10 SO 18.5
Ieri h: 17:50 molto_nuvoloso Molto Nuvoloso 17 13 77 1002 10 SO 22.2
Ieri h: 16:50 molto_nuvoloso Molto Nuvoloso 17 14 82 1004 10 SO 22.2
Ieri h: 15:50 molto_nuvoloso Molto Nuvoloso 17 13 77 1004 10 SO 20.3
Ieri h: 14:50 molto_nuvoloso Molto Nuvoloso 17 13 77 1005 10 SO 25.9
Ieri h: 13:50 molto_nuvoloso Molto Nuvoloso 17 13 77 1006 10 SO 25.9
Ieri h: 12:50 molto_nuvoloso Molto Nuvoloso 18 13 72 1006 10 SO 24
Ieri h: 11:50 molto_nuvoloso Molto Nuvoloso 18 13 72 1006 10 SO 18.5
Ieri h: 10:50 coperto_pioggia Pioggia Debole 18 12 67 1006 10 SO 25.9
Ieri h: 09:50 molto_nuvoloso Molto Nuvoloso 18 12 67 1007 10 SO 18.5
Ieri h: 07:50 sereno Sereno 17 12 72 1008 10 S/SO 11.1
Ieri h: 06:50 sereno Sereno 17 11 67 1009 10 SO 13
Ieri h: 05:50 sereno Sereno 17 11 67 1010 10 SO 16.7
Ieri h: 04:50 sereno Sereno 18 11 63 1010 10 SO 20.3